Location: Unspecified
(41.5000°N, 0.0000°E)
Time: 20:52:37
(UTC+00:00)

deb Explorer IX - Pass Details

Date: 01 October 2020
Orbit: 537 x 1106 km, 38.8° (Epoch: 26 October)

Event Time Altitude Azimuth Distance (km) Brightness Sun altitude
Rises 19:12:58 0° 270° (W) 2,968 ? -17.9°
Reaches altitude 10° 19:15:28 10° 266° (W) 1,979 ? -18.4°
Maximum altitude 19:19:52 55° 189° (S) 685 ? -19.2°
Enters shadow 19:20:50 43° 141° (SE) 790 ? -19.4°
